DLH6CX EDDM-EPWA

Flight info

Callsign DLH6CX
Flight time 1h 12m
Altitude 35000
Route BIBAG2Q BIBAG Y133 BEPAS DCT LEGAZ DCT LAGAR DCT OKENO DCT GOGUS DCT AGAVA
Aircraft A319/M-SDE2E3FGIJ1LORWXYZ/HB1

Departure

Time 2026-05-04 17:31
Airport Munich Airport (EDDM)

Arrival

Time 2026-05-04 18:44
Airport Warsaw Chopin Airport (EPWA)
Time Latitude Longitude Altitude Speed Heading
2026-05-04 16:46 48.35837 11.79219 1458 ft 0 kts 264°
2026-05-04 17:13 48.35839 11.79235 1467 ft 4 kts 264°
2026-05-04 17:14 48.35840 11.79355 1459 ft 4 kts 285°
2026-05-04 17:14 48.35829 11.79387 1461 ft 4 kts 337°
2026-05-04 17:14 48.35819 11.79391 1460 ft 0 kts 353°
2026-05-04 17:17 48.35820 11.79391 1460 ft 0 kts 353°
2026-05-04 17:18 48.35823 11.79390 1460 ft 1 kts 353°
2026-05-04 17:18 48.35852 11.79387 1461 ft 3 kts 356°
2026-05-04 17:19 48.35873 11.79449 1460 ft 7 kts 158°
2026-05-04 17:19 48.35763 11.79469 1464 ft 9 kts 173°
2026-05-04 17:20 48.35619 11.79493 1459 ft 12 kts 172°
2026-05-04 17:20 48.35445 11.79522 1461 ft 14 kts 172°
2026-05-04 17:20 48.35352 11.79540 1458 ft 13 kts 173°
2026-05-04 17:21 48.35199 11.79567 1467 ft 9 kts 174°
2026-05-04 17:21 48.35093 11.79585 1467 ft 6 kts 173°
2026-05-04 17:22 48.35052 11.79592 1467 ft 5 kts 174°
2026-05-04 17:22 48.35019 11.79597 1462 ft 5 kts 175°
2026-05-04 17:23 48.34912 11.79549 1460 ft 5 kts 173°
2026-05-04 17:23 48.34884 11.79554 1466 ft 0 kts 173°
2026-05-04 17:24 48.34791 11.79534 1460 ft 9 kts 237°
2026-05-04 17:25 48.34780 11.79431 1463 ft 11 kts 265°
2026-05-04 17:25 48.34760 11.79165 1467 ft 15 kts 262°
2026-05-04 17:26 48.34729 11.78772 1467 ft 21 kts 263°
2026-05-04 17:26 48.34675 11.78069 1466 ft 24 kts 263°
2026-05-04 17:27 48.34637 11.77567 1457 ft 25 kts 263°
2026-05-04 17:27 48.34598 11.77047 1466 ft 26 kts 263°
2026-05-04 17:28 48.34556 11.76506 1466 ft 26 kts 263°
2026-05-04 17:29 48.34491 11.75673 1461 ft 27 kts 263°
2026-05-04 17:29 48.34352 11.75218 1466 ft 14 kts 174°
2026-05-04 17:30 48.34081 11.75286 1469 ft 9 kts 116°
2026-05-04 17:31 48.34111 11.75668 1468 ft 61 kts 83°
2026-05-04 17:31 48.34437 11.80058 2500 ft 164 kts 82°
2026-05-04 17:32 48.34724 11.83812 3457 ft 207 kts 83°
2026-05-04 17:33 48.35279 11.91174 5737 ft 250 kts 84°
2026-05-04 17:33 48.35351 11.93825 6523 ft 260 kts 101°
2026-05-04 17:34 48.32942 12.01631 6951 ft 278 kts 117°
2026-05-04 17:34 48.32373 12.03366 6929 ft 278 kts 117°
2026-05-04 17:35 48.30001 12.11295 6932 ft 278 kts 114°
2026-05-04 17:35 48.28497 12.16667 6935 ft 278 kts 114°
2026-05-04 17:35 48.27728 12.19338 6931 ft 279 kts 115°
2026-05-04 17:36 48.26948 12.22002 6929 ft 279 kts 115°
2026-05-04 17:36 48.26163 12.24666 6927 ft 278 kts 115°
2026-05-04 17:36 48.25376 12.27322 6932 ft 278 kts 115°
2026-05-04 17:36 48.24763 12.30077 6927 ft 279 kts 103°
2026-05-04 17:37 48.24583 12.33032 7310 ft 290 kts 89°
2026-05-04 17:37 48.24847 12.36019 8412 ft 291 kts 78°
2026-05-04 17:37 48.25526 12.38876 9364 ft 299 kts 65°
2026-05-04 17:37 48.26581 12.41625 10248 ft 307 kts 60°
2026-05-04 17:38 48.27703 12.44452 10782 ft 327 kts 60°
2026-05-04 17:38 48.28898 12.47470 11325 ft 344 kts 61°
2026-05-04 17:38 48.30133 12.50589 12134 ft 351 kts 61°
2026-05-04 17:38 48.31389 12.53768 12975 ft 356 kts 61°
2026-05-04 17:39 48.33963 12.60316 14486 ft 370 kts 61°
2026-05-04 17:39 48.35434 12.63534 15130 ft 379 kts 49°
2026-05-04 17:39 48.37235 12.66401 15836 ft 383 kts 47°
2026-05-04 17:40 48.39085 12.69319 16612 ft 387 kts 47°
2026-05-04 17:40 48.40955 12.72274 17349 ft 390 kts 47°
2026-05-04 17:40 48.42837 12.75254 18100 ft 394 kts 47°
2026-05-04 17:40 48.44737 12.78267 18756 ft 397 kts 47°
2026-05-04 17:41 48.46630 12.81276 19407 ft 400 kts 46°
2026-05-04 17:41 48.48544 12.84324 20060 ft 403 kts 46°
2026-05-04 17:41 48.50476 12.87408 20712 ft 407 kts 46°
2026-05-04 17:41 48.52431 12.90534 21364 ft 410 kts 46°
2026-05-04 17:42 48.54397 12.93680 22017 ft 413 kts 46°
2026-05-04 17:42 48.56378 12.96849 22742 ft 413 kts 46°
2026-05-04 17:42 48.58346 13.00002 23563 ft 412 kts 45°
2026-05-04 17:42 48.60297 13.03127 24109 ft 415 kts 45°
2026-05-04 17:43 48.62290 13.06321 24636 ft 418 kts 45°
2026-05-04 17:43 48.64290 13.09535 25147 ft 421 kts 46°
2026-05-04 17:43 48.66312 13.12786 25647 ft 424 kts 46°
2026-05-04 17:43 48.68344 13.16057 26141 ft 427 kts 46°
2026-05-04 17:44 48.70363 13.19313 26628 ft 430 kts 46°
2026-05-04 17:44 48.72412 13.22628 27109 ft 433 kts 46°
2026-05-04 17:44 48.74477 13.25979 27579 ft 436 kts 46°
2026-05-04 17:44 48.76557 13.29349 28058 ft 439 kts 46°
2026-05-04 17:45 48.78636 13.32716 28506 ft 443 kts 46°
2026-05-04 17:45 48.80751 13.36146 28963 ft 446 kts 46°
2026-05-04 17:45 48.82880 13.39605 29420 ft 449 kts 46°
2026-05-04 17:45 48.85021 13.43096 29883 ft 452 kts 46°
2026-05-04 17:46 48.87169 13.46602 30269 ft 455 kts 46°
2026-05-04 17:46 48.89514 13.49867 30651 ft 456 kts 36°
2026-05-04 17:46 48.92134 13.52510 31022 ft 457 kts 27°
2026-05-04 17:46 48.95008 13.54621 31396 ft 458 kts 22°
2026-05-04 17:47 48.97919 13.56658 31819 ft 459 kts 22°
2026-05-04 17:47 49.00823 13.58704 32348 ft 458 kts 23°
2026-05-04 17:47 49.03674 13.60723 32859 ft 457 kts 23°
2026-05-04 17:47 49.06559 13.62775 33392 ft 456 kts 23°
2026-05-04 17:48 49.09427 13.64821 33905 ft 455 kts 23°
2026-05-04 17:48 49.12295 13.66863 34349 ft 454 kts 23°
2026-05-04 17:48 49.14194 13.68214 34642 ft 453 kts 23°
2026-05-04 17:48 49.18025 13.70944 34926 ft 452 kts 22°
2026-05-04 17:49 49.20840 13.72957 34954 ft 441 kts 22°
2026-05-04 17:49 49.23562 13.74909 34953 ft 435 kts 22°
2026-05-04 17:49 49.29035 13.78826 34956 ft 432 kts 22°
2026-05-04 17:50 49.34486 13.82723 34956 ft 431 kts 22°
2026-05-04 17:50 49.39933 13.86639 34954 ft 432 kts 22°
2026-05-04 17:51 49.45352 13.90552 34955 ft 432 kts 22°
2026-05-04 17:51 49.50800 13.94496 34956 ft 432 kts 22°
2026-05-04 17:52 49.56220 13.98427 34956 ft 432 kts 22°
2026-05-04 17:52 49.61674 14.02376 34969 ft 432 kts 22°
2026-05-04 17:53 49.67078 14.06306 34971 ft 431 kts 22°
2026-05-04 17:53 49.72510 14.10280 34969 ft 431 kts 22°
2026-05-04 17:54 49.77938 14.14262 34971 ft 431 kts 22°
2026-05-04 17:54 49.83339 14.18214 34983 ft 430 kts 22°
2026-05-04 17:55 49.88750 14.22189 34988 ft 429 kts 22°
2026-05-04 17:55 49.94106 14.26145 34971 ft 428 kts 22°
2026-05-04 17:56 49.99487 14.30124 34976 ft 427 kts 22°
2026-05-04 17:56 50.04861 14.34099 34970 ft 427 kts 22°
2026-05-04 17:57 50.10197 14.38066 34963 ft 427 kts 22°
2026-05-04 17:57 50.15553 14.42057 34981 ft 426 kts 22°
2026-05-04 17:58 50.20907 14.46049 34977 ft 426 kts 22°
2026-05-04 17:58 50.26269 14.50066 34966 ft 426 kts 22°
2026-05-04 17:59 50.31582 14.54053 34963 ft 426 kts 22°
2026-05-04 18:00 50.39611 14.60085 34961 ft 426 kts 22°
2026-05-04 18:00 50.44925 14.64100 34959 ft 426 kts 22°
2026-05-04 18:01 50.50274 14.68146 34955 ft 426 kts 22°
2026-05-04 18:01 50.55617 14.72205 34951 ft 426 kts 22°
2026-05-04 18:02 50.63388 14.78951 34959 ft 431 kts 38°
2026-05-04 18:02 50.65523 14.82292 34952 ft 434 kts 49°
2026-05-04 18:02 50.67252 14.86209 34946 ft 436 kts 59°
2026-05-04 18:03 50.69607 14.95041 34940 ft 438 kts 68°
2026-05-04 18:03 50.71760 15.03982 34938 ft 438 kts 68°
2026-05-04 18:04 50.73921 15.12984 34935 ft 439 kts 69°
2026-05-04 18:05 50.77136 15.26548 34946 ft 438 kts 69°
2026-05-04 18:05 50.79250 15.35536 34954 ft 438 kts 69°
2026-05-04 18:06 50.82621 15.49019 34956 ft 438 kts 66°
2026-05-04 18:06 50.84950 15.57880 34950 ft 438 kts 66°
2026-05-04 18:07 50.87263 15.66834 34946 ft 439 kts 67°
2026-05-04 18:07 50.89130 15.76049 34942 ft 439 kts 72°
2026-05-04 18:08 50.90828 15.85368 34950 ft 439 kts 73°
2026-05-04 18:08 50.92496 15.94619 34940 ft 439 kts 73°
2026-05-04 18:09 50.95891 16.13262 34938 ft 439 kts 73°
2026-05-04 18:10 50.97578 16.22556 34930 ft 440 kts 73°
2026-05-04 18:10 50.99259 16.31900 34925 ft 440 kts 73°
2026-05-04 18:11 51.00934 16.41275 34932 ft 439 kts 73°
2026-05-04 18:11 51.02583 16.50566 34929 ft 439 kts 73°
2026-05-04 18:12 51.04235 16.59908 34929 ft 439 kts 73°
2026-05-04 18:12 51.05872 16.69199 34928 ft 438 kts 73°
2026-05-04 18:13 51.07513 16.78562 34944 ft 438 kts 73°
2026-05-04 18:14 51.09953 16.92535 34940 ft 438 kts 73°
2026-05-04 18:14 51.11576 17.01909 34938 ft 438 kts 73°
2026-05-04 18:15 51.14775 17.20607 34929 ft 438 kts 73°
2026-05-04 18:16 51.16374 17.29992 34928 ft 438 kts 73°
2026-05-04 18:16 51.17965 17.39375 34919 ft 438 kts 73°
2026-05-04 18:17 51.20333 17.53430 34946 ft 437 kts 74°
2026-05-04 18:18 51.22663 17.67442 34931 ft 437 kts 74°
2026-05-04 18:18 51.24263 17.76802 34925 ft 436 kts 69°
2026-05-04 18:19 51.27596 17.90350 34926 ft 436 kts 66°
2026-05-04 18:19 51.29852 17.99357 34671 ft 444 kts 66°
2026-05-04 18:20 51.30995 18.03952 34430 ft 444 kts 66°
2026-05-04 18:20 51.32128 18.08540 34189 ft 443 kts 67°
2026-05-04 18:20 51.33253 18.13119 33946 ft 441 kts 67°
2026-05-04 18:20 51.34369 18.17693 33677 ft 440 kts 67°
2026-05-04 18:21 51.35103 18.20712 33504 ft 439 kts 67°
2026-05-04 18:21 51.36212 18.25257 33226 ft 439 kts 67°
2026-05-04 18:21 51.37321 18.29805 32952 ft 437 kts 67°
2026-05-04 18:21 51.38426 18.34332 32687 ft 435 kts 67°
2026-05-04 18:22 51.39522 18.38836 32421 ft 433 kts 67°
2026-05-04 18:22 51.40611 18.43330 32155 ft 432 kts 67°
2026-05-04 18:22 51.41696 18.47818 31894 ft 430 kts 67°
2026-05-04 18:22 51.42771 18.52277 31632 ft 428 kts 67°
2026-05-04 18:23 51.43837 18.56708 31380 ft 425 kts 67°
2026-05-04 18:23 51.44887 18.61074 31130 ft 423 kts 67°
2026-05-04 18:23 51.45946 18.65483 30879 ft 422 kts 67°
2026-05-04 18:23 51.46999 18.69868 30628 ft 420 kts 67°
2026-05-04 18:24 51.48047 18.74242 30380 ft 418 kts 67°
2026-05-04 18:24 51.49070 18.78532 30055 ft 414 kts 68°
2026-05-04 18:24 51.50097 18.82853 29528 ft 412 kts 68°
2026-05-04 18:24 51.51114 18.87139 29080 ft 409 kts 68°
2026-05-04 18:25 51.52122 18.91407 28641 ft 406 kts 68°
2026-05-04 18:25 51.53118 18.95642 28197 ft 403 kts 68°
2026-05-04 18:25 51.54109 18.99847 27749 ft 401 kts 68°
2026-05-04 18:25 51.55082 19.03971 27313 ft 398 kts 68°
2026-05-04 18:26 51.56059 19.08111 26859 ft 396 kts 68°
2026-05-04 18:26 51.57034 19.12257 26399 ft 393 kts 68°
2026-05-04 18:26 51.57997 19.16363 25938 ft 392 kts 68°
2026-05-04 18:26 51.58959 19.20459 25456 ft 390 kts 68°
2026-05-04 18:27 51.59915 19.24545 24971 ft 389 kts 69°
2026-05-04 18:27 51.60865 19.28617 24474 ft 388 kts 69°
2026-05-04 18:27 51.61809 19.32688 23974 ft 387 kts 69°
2026-05-04 18:27 51.62751 19.36751 23464 ft 387 kts 69°
2026-05-04 18:28 51.63677 19.40760 22929 ft 385 kts 69°
2026-05-04 18:28 51.64610 19.44801 22430 ft 383 kts 69°
2026-05-04 18:28 51.65535 19.48810 21950 ft 380 kts 69°
2026-05-04 18:28 51.66455 19.52795 21468 ft 378 kts 69°
2026-05-04 18:29 51.67367 19.56757 20988 ft 376 kts 69°
2026-05-04 18:29 51.68261 19.60660 20530 ft 374 kts 70°
2026-05-04 18:29 51.69162 19.64594 20049 ft 373 kts 70°
2026-05-04 18:29 51.70058 19.68512 19597 ft 371 kts 70°
2026-05-04 18:30 51.71834 19.76306 18660 ft 369 kts 70°
2026-05-04 18:30 51.72717 19.80188 18215 ft 367 kts 70°
2026-05-04 18:30 51.73595 19.84049 17724 ft 366 kts 70°
2026-05-04 18:31 51.74466 19.87887 17289 ft 363 kts 70°
2026-05-04 18:31 51.75327 19.91704 16838 ft 361 kts 70°
2026-05-04 18:31 51.76182 19.95498 16411 ft 358 kts 70°
2026-05-04 18:31 51.77024 19.99235 15988 ft 357 kts 70°
2026-05-04 18:32 51.77871 20.02994 15577 ft 355 kts 70°
2026-05-04 18:32 51.78715 20.06740 15152 ft 354 kts 70°
2026-05-04 18:32 51.79551 20.10466 14734 ft 353 kts 71°
2026-05-04 18:32 51.80383 20.14192 14373 ft 350 kts 71°
2026-05-04 18:33 51.81205 20.17879 13988 ft 348 kts 71°
2026-05-04 18:33 51.82026 20.21569 13557 ft 348 kts 71°
2026-05-04 18:33 51.82843 20.25233 13142 ft 346 kts 71°
2026-05-04 18:33 51.83646 20.28834 12713 ft 344 kts 71°
2026-05-04 18:34 51.84454 20.32469 12288 ft 342 kts 71°
2026-05-04 18:34 51.85251 20.36080 11866 ft 340 kts 71°
2026-05-04 18:34 51.86042 20.39675 11440 ft 338 kts 71°
2026-05-04 18:34 51.86828 20.43251 11011 ft 336 kts 71°
2026-05-04 18:35 51.87613 20.46821 10559 ft 335 kts 71°
2026-05-04 18:35 51.88394 20.50371 10132 ft 334 kts 71°
2026-05-04 18:35 51.89160 20.53856 9825 ft 329 kts 71°
2026-05-04 18:35 51.89913 20.57284 9617 ft 318 kts 71°
2026-05-04 18:36 51.90650 20.60643 9110 ft 314 kts 71°
2026-05-04 18:36 51.91377 20.63968 8594 ft 311 kts 71°
2026-05-04 18:36 51.92092 20.67249 8084 ft 307 kts 71°
2026-05-04 18:36 51.92802 20.70511 7563 ft 304 kts 71°
2026-05-04 18:37 51.93501 20.73723 7034 ft 301 kts 71°
2026-05-04 18:37 51.94186 20.76881 6554 ft 298 kts 71°
2026-05-04 18:37 51.94870 20.80042 6062 ft 294 kts 71°
2026-05-04 18:37 51.95527 20.83076 5915 ft 276 kts 71°
2026-05-04 18:38 51.96149 20.85963 5555 ft 269 kts 71°
2026-05-04 18:38 51.96755 20.88789 5226 ft 260 kts 71°
2026-05-04 18:38 51.97342 20.91526 4776 ft 255 kts 71°
2026-05-04 18:38 51.97920 20.94213 4257 ft 253 kts 71°
2026-05-04 18:39 51.98497 20.96889 4054 ft 252 kts 71°
2026-05-04 18:39 51.99075 20.99574 3752 ft 251 kts 71°
2026-05-04 18:39 51.99650 21.02259 3457 ft 250 kts 71°
2026-05-04 18:39 52.00219 21.04915 3157 ft 247 kts 71°
2026-05-04 18:40 52.00985 21.07343 3003 ft 236 kts 44°
2026-05-04 18:40 52.02356 21.08425 3002 ft 210 kts 359°
2026-05-04 18:40 52.03698 21.07877 2916 ft 196 kts 331°
2026-05-04 18:40 52.04883 21.06898 2669 ft 190 kts 328°
2026-05-04 18:41 52.06034 21.05899 2436 ft 185 kts 327°
2026-05-04 18:41 52.07152 21.04928 2197 ft 176 kts 327°
2026-05-04 18:41 52.08194 21.04023 1976 ft 164 kts 327°
2026-05-04 18:41 52.09165 21.03179 1770 ft 153 kts 327°
2026-05-04 18:42 52.10053 21.02407 1582 ft 138 kts 326°
2026-05-04 18:42 52.10873 21.01692 1406 ft 131 kts 327°
2026-05-04 18:42 52.11668 21.00997 1240 ft 129 kts 327°
2026-05-04 18:42 52.12473 21.00292 1045 ft 133 kts 328°
2026-05-04 18:43 52.13299 20.99571 885 ft 135 kts 329°
2026-05-04 18:43 52.14130 20.98847 688 ft 136 kts 329°
2026-05-04 18:43 52.14974 20.98111 489 ft 136 kts 329°
2026-05-04 18:43 52.15781 20.97410 353 ft 126 kts 328°
2026-05-04 18:44 52.16436 20.96833 335 ft 84 kts 332°
2026-05-04 18:44 52.16710 20.96595 337 ft 43 kts 332°
2026-05-04 18:44 52.17002 20.96515 336 ft 25 kts
2026-05-04 18:44 52.17086 20.96563 335 ft 13 kts 57°
2026-05-04 18:45 52.17090 20.96572 336 ft 0 kts 58°
2026-05-04 18:46 52.17091 20.96576 336 ft 2 kts 58°
2026-05-04 18:46 52.17108 20.96628 334 ft 9 kts 63°
2026-05-04 18:46 52.17148 20.96748 335 ft 14 kts 61°
2026-05-04 18:46 52.17139 20.96857 336 ft 12 kts 148°
2026-05-04 18:47 52.17078 20.96912 334 ft 9 kts 152°
2026-05-04 18:47 52.17017 20.96966 336 ft 11 kts 152°
2026-05-04 18:47 52.16970 20.97026 335 ft 5 kts 98°
2026-05-04 18:47 52.16988 20.97087 334 ft 6 kts 66°
2026-05-04 18:48 52.16999 20.97137 334 ft 4 kts 72°
2026-05-04 18:48 52.17002 20.97153 336 ft 0 kts 72°